Find Kosmos-1752

NORAD ID: 16762 Int'l Des: 1986-042 Owner: UNKS Country: SU operational
LEOCIRCULAR

リアルタイム位置

3D地球を読み込み中...

Kosmos-1752について

説明を読み込み中...

次回通過

Passes for default location (London). Set your location on the main map for personalized predictions.

高度履歴

Loading altitude history...

軌道要素

1 16762U 86042E 26106.87214244 .00000014 00000-0 20453-3 0 9991
2 16762 74.0163 151.1093 0010942 109.7574 63.2228 12.47016477814672
Epoch: Apr 16, 2026 • Age: 15 hours

現在のステータス

高度 1480.2 km
速度 7.13 km/s
衛星直下点 54.55°N, 152.5°E
打ち上げ日 Jun 6, 1986
運用期間 39.8 years
タイプ other

技術仕様

分類 Payload
質量 60.00 kg
乾燥質量 60.00 kg
総質量 60.00 kg
長さ 0.80 m
直径 0.80 m
スパン 0.80 m
形状 Poly
製造者 NPOPM
バスタイプ Strela-1 11F625
フェーズステータス In Orbit
所有者/国 UNKS/SU

Most Searched